[[{"header":{"parameterUnit":"m.s-1","parameterCategory":1,"la1":30.2991,"la2":30.254,"lo1":-89.0895,"lo2":-89.0444,"dy":0.0017,"dx":0.0017,"nx":28,"ny":28,"refTime":"2024-03-18T09:00:00:Z","depth":0,"parameterNumber":2,"parameterNumberName":"U-component_of_WINDS"},"data":[0,0,0,0,0,0,0,0,0,0,0,0,0,0,0,0,0,0,0,0,0,0,0,0,0,0,0,0,0,0,0,0,0,0,0,0,0,0,0,0,0,0,0,0,0,0,0,0,0,0,0,0,0,0,0,0,0,0,0.8557,0.8558,0,0.8647,0.8648,0.8649,0.8721,0.8722,0.8722,0.8723,0.8816,0.8818,0.882,0,0,0,0,0,0,0,0,0,0,0,0,0,0.8448,0.845,0.8557,0.8558,0.8559,0.8647,0.8648,0.8649,0.8721,0.8722,0.8723,0.8723,0.8816,0.8818,0.882,0,0,0,0,0,0,0,0,0,0,0,0,0,0.8512,0.845,0.8557,0.8606,0.8611,0.8647,0.8648,0.865,0.8721,0.8722,0.8723,0.8724,0.8815,0.8818,0.882,0.8816,0,0,0.8829,0.883,0,0,0,0,0,0,0,0,0.8509,0.8516,0.8597,0.8602,0.8608,0.8674,0.8644,0.8705,0.872,0.8679,0.8723,0.8724,0.8768,0.8775,0.8789,0.882,0.8824,0.8829,0.8831,0.8832,0.8833,0,0,0,0,0,0,0,0.8504,0.8513,0.8593,0.8598,0.8605,0.8623,0.8634,0.8656,0.8717,0.8683,0.8688,0.8698,0.8771,0.8787,0.8792,0.8825,0.8829,0.8831,0.8833,0.8834,0.8856,0.8855,0,0,0,0,0,0,0.8492,0.8509,0.859,0.8596,0.856,0.8624,0.8636,0.8652,0.8716,0.8727,0.8697,0.8701,0.8781,0.8789,0.8796,0.8794,0.8832,0.8834,0.8836,0.8857,0.8856,0.8855,0,0,0,0,0,0,0.8489,0.8499,0.8586,0.8554,0.8566,0.8625,0.8642,0.8653,0.8668,0.8727,0.8738,0.8701,0.8783,0.8792,0.881,0.8798,0.8836,0.8838,0.8858,0.8857,0.8855,0.879,0,0,0,0,0,0,0.8486,0.8497,0.8496,0.8553,0.8568,0.8599,0.8642,0.8654,0.8673,0.8679,0.8734,0.8744,0.8784,0.8805,0.8813,0.8802,0.884,0.886,0.8858,0.8856,0.8793,0.8786,0.878,0,0,0,0,0,0.8482,0.8474,0.8495,0.8505,0.8567,0.8598,0.8606,0.8652,0.8671,0.867,0.8708,0.8743,0.8798,0.8807,0.8815,0.8806,0.8861,0.8858,0.8856,0.8796,0.8788,0.878,0,0,0,0,0,0,0.8414,0.8483,0.8507,0.8517,0.8551,0.861,0.861,0.8641,0.8671,0.8675,0.8731,0.8743,0.8755,0.8783,0.8791,0.8804,0.8834,0.8833,0.8786,0.8778,0.8771,0.8764,0.8842,0,0,0,0,0,0.8401,0.842,0.8478,0.8482,0.8498,0.8551,0.8566,0.8598,0.8636,0.865,0.8689,0.8725,0.875,0.8766,0.8793,0.8798,0.8811,0.8796,0.8789,0.8783,0.8782,0.8786,0.878,0.8847,0.8847,0.8847,0,0,0.8373,0.8412,0.8421,0.847,0.85,0.8518,0.8562,0.858,0.8594,0.8653,0.8672,0.8702,0.8745,0.8757,0.8764,0.878,0.8766,0.878,0.8775,0.8777,0.8783,0.8777,0.8771,0.8845,0.8846,0.8846,0,0,0.8331,0.8363,0.8369,0.8398,0.8443,0.8478,0.8479,0.8533,0.8555,0.8575,0.8619,0.8638,0.868,0.8709,0.8729,0.8698,0.873,0.8705,0.867,0.8674,0.8668,0.8664,0.8652,0.8647,0.8703,0.8703,0.8703,0,0.829,0.832,0.8369,0.8383,0.8403,0.8457,0.8464,0.849,0.8541,0.8553,0.8571,0.8625,0.8658,0.8677,0.8669,0.8684,0.8687,0.8699,0.8665,0.8661,0.8658,0.8647,0.8642,0.87,0.87,0.8701,0.8701,0,0.8267,0.8287,0.8287,0.8334,0.8354,0.8365,0.8415,0.843,0.846,0.8493,0.8513,0.8554,0.859,0.8597,0.8627,0.862,0.8628,0.8655,0.8685,0.8647,0.8638,0.8634,0.8695,0.8696,0.8697,0.8698,0,0,0.8185,0.8259,0.8258,0.828,0.8333,0.8349,0.8362,0.8397,0.8408,0.8441,0.8453,0.8488,0.8513,0.8536,0.857,0.8573,0.8544,0.8599,0.8601,0.8586,0.8537,0.8516,0.851,0.8566,0.8566,0.8565,0.8533,0,0.8151,0.8177,0.8221,0.8233,0.8251,0.8303,0.8314,0.8348,0.8379,0.84,0.8435,0.8458,0.849,0.8504,0.8509,0.8546,0.8535,0.8549,0.8577,0.8578,0.8564,0.8506,0.8484,0.8451,0.853,0.8529,0.8529,0,0.8115,0.8145,0.8158,0.8209,0.8218,0.8228,0.8262,0.8281,0.8321,0.8344,0.8368,0.8405,0.8422,0.845,0.8473,0.8482,0.8497,0.8517,0.8517,0.852,0.855,0.8507,0.8442,0.8437,0.8524,0.8524,0.8525,0,0.8052,0.8096,0.8109,0.8126,0.8187,0.8192,0.8217,0.8258,0.8275,0.8306,0.8318,0.835,0.8368,0.8392,0.8436,0.8453,0.8454,0.8487,0.8473,0.8472,0.847,0.847,0.8406,0.8481,0.8481,0.8481,0.8481,0,0.8009,0.8015,0.8082,0.809,0.8098,0.8149,0.8155,0.8186,0.8221,0.8236,0.8283,0.8296,0.8354,0.8374,0.8409,0.8422,0.843,0.8449,0.8458,0.8444,0.8441,0.8453,0.8456,0.848,0.848,0.8481,0.8481,0,0.794,0.7985,0.8003,0.8058,0.8073,0.8076,0.8124,0.8133,0.8168,0.8186,0.8193,0.8247,0.8272,0.8319,0.8359,0.8382,0.8388,0.8404,0.8374,0.8379,0.8363,0.8363,0.8304,0.8299,0.8377,0.8377,0.8376,0,0.7909,0.7915,0.797,0.7983,0.8007,0.8028,0.8046,0.8096,0.8113,0.8158,0.8162,0.8191,0.8217,0.8256,0.8298,0.8328,0.8345,0.8323,0.835,0.8336,0.8344,0.8342,0.8343,0.8316,0.8315,0.8314,0.8313,0,0.7849,0.7871,0.7895,0.7926,0.7946,0.7974,0.8004,0.8012,0.8069,0.8086,0.8112,0.8132,0.8172,0.82,0.8236,0.8263,0.8297,0.8304,0.8302,0.8288,0.8269,0.8278,0.8356,0.8305,0.8306,0.8306,0.8307,0.8307,0.7797,0.7804,0.7844,0.7869,0.7897,0.7924,0.7935,0.7971,0.7994,0.8029,0.8058,0.8082,0.8121,0.8173,0.8197,0.8217,0.8233,0.8231,0.823,0.8228,0.8222,0.8267,0.8224,0.8224,0.8224,0.8225,0.8225,0,0.7738,0.7767,0.7789,0.7829,0.7848,0.7879,0.7914,0.7928,0.7948,0.7982,0.8006,0.8036,0.8064,0.8108,0.8139,0.8146,0.8162,0.8152,0.8152,0.8157,0.8206,0.8204,0.8138,0.8138,0.8138,0.8138,0.8138,0.8138,0.771,0.7723,0.7749,0.7777,0.7805,0.7828,0.7845,0.787,0.7897,0.7928,0.7951,0.798,0.8018,0.8052,0.8078,0.8091,0.8099,0.8084,0.8101,0.8146,0.8154,0.8161,0.816,0.8085,0.8085,0.805,0.805,0.8049]},{"header":{"parameterUnit":"m.s-1","parameterCategory":1,"la1":30.2991,"la2":30.254,"lo1":-89.0895,"lo2":-89.0444,"dy":0.0017,"dx":0.0017,"nx":28,"ny":28,"refTime":"2024-03-18T09:00:00:Z","depth":0,"parameterNumber":3,"parameterNumberName":"V-component_of_WINDS"},"data":[0,0,0,0,0,0,0,0,0,0,0,0,0,0,0,0,0,0,0,0,0,0,0,0,0,0,0,0,0,0,0,0,0,0,0,0,0,0,0,0,0,0,0,0,0,0,0,0,0,0,0,0,0,0,0,0,0,0,0.4988,0.4988,0,0.4937,0.4936,0.4936,0.4942,0.4943,0.4944,0.4945,0.489,0.4887,0.4885,0,0,0,0,0,0,0,0,0,0,0,0,0,0.5089,0.5087,0.4988,0.4988,0.4987,0.4937,0.4936,0.4936,0.4942,0.4943,0.4944,0.4945,0.489,0.4888,0.4885,0,0,0,0,0,0,0,0,0,0,0,0,0,0.5042,0.5086,0.4989,0.4985,0.4984,0.4937,0.4936,0.4935,0.4942,0.4943,0.4945,0.4946,0.4891,0.4888,0.4885,0.4838,0,0,0.4874,0.4873,0,0,0,0,0,0,0,0,0.5045,0.5038,0.4986,0.4985,0.4984,0.4948,0.4951,0.4903,0.4942,0.4958,0.4945,0.4946,0.4908,0.4903,0.489,0.4835,0.4833,0.4874,0.4872,0.487,0.4869,0,0,0,0,0,0,0,0.5048,0.504,0.4968,0.4985,0.4984,0.4984,0.4979,0.4942,0.4926,0.4957,0.4957,0.4951,0.4907,0.4894,0.4889,0.4832,0.4874,0.4871,0.4869,0.4867,0.4733,0.4732,0,0,0,0,0,0,0.5053,0.5043,0.497,0.4967,0.5018,0.4981,0.4975,0.4958,0.4927,0.4923,0.495,0.4951,0.4899,0.4893,0.4887,0.4828,0.487,0.4867,0.4865,0.4735,0.4733,0.4731,0,0,0,0,0,0,0.5055,0.5046,0.4972,0.5005,0.4995,0.4978,0.4958,0.4956,0.4943,0.4922,0.4918,0.4939,0.49,0.4892,0.485,0.4826,0.4866,0.4863,0.4737,0.4734,0.4732,0.4711,0,0,0,0,0,0,0.5058,0.5047,0.503,0.5004,0.4994,0.4936,0.4957,0.4954,0.4937,0.4938,0.4911,0.4907,0.49,0.4855,0.4846,0.4822,0.486,0.4738,0.4735,0.4733,0.4714,0.4709,0.4704,0,0,0,0,0,0.5061,0.5026,0.5029,0.502,0.4972,0.4935,0.4929,0.4922,0.4935,0.4917,0.4903,0.4908,0.4831,0.485,0.4841,0.4816,0.474,0.4736,0.4733,0.4716,0.471,0.4704,0,0,0,0,0,0,0.5049,0.5023,0.5026,0.4982,0.496,0.4936,0.4913,0.4916,0.489,0.4892,0.4884,0.4878,0.4834,0.4821,0.4843,0.4768,0.4787,0.4781,0.4777,0.4771,0.4766,0.4769,0.4857,0,0,0,0,0,0.5041,0.5014,0.4992,0.4955,0.4945,0.4931,0.4914,0.4911,0.4888,0.4879,0.4862,0.4839,0.4809,0.479,0.4762,0.4713,0.4705,0.4691,0.4686,0.4682,0.4676,0.4646,0.4639,0.472,0.472,0.472,0,0,0.5024,0.5007,0.499,0.4952,0.4936,0.4906,0.4923,0.4892,0.4869,0.4874,0.4832,0.4819,0.4793,0.4746,0.4725,0.4734,0.4652,0.4677,0.4674,0.4671,0.4642,0.4634,0.4628,0.4718,0.4718,0.4718,0,0,0.4979,0.4964,0.493,0.4913,0.4887,0.4878,0.487,0.4845,0.4836,0.4795,0.4797,0.4769,0.4719,0.4699,0.4683,0.4628,0.463,0.4619,0.4592,0.4563,0.4557,0.4551,0.4528,0.4521,0.4614,0.4614,0.4614,0,0.4961,0.4917,0.4912,0.488,0.4862,0.4866,0.483,0.4814,0.478,0.4766,0.4778,0.4713,0.4696,0.4643,0.4629,0.4617,0.4605,0.4621,0.4558,0.4552,0.4547,0.4525,0.4517,0.4613,0.4613,0.4613,0.4613,0,0.4895,0.4865,0.4841,0.4808,0.4787,0.4754,0.4742,0.4722,0.472,0.4709,0.4665,0.4645,0.4611,0.4599,0.4597,0.4545,0.4551,0.456,0.4579,0.4538,0.4517,0.4509,0.4611,0.4611,0.4611,0.4612,0,0,0.484,0.4804,0.4795,0.4778,0.475,0.4725,0.4691,0.4659,0.464,0.4617,0.4586,0.4542,0.455,0.4531,0.4527,0.4502,0.4456,0.4514,0.4513,0.4501,0.4394,0.4385,0.4376,0.4458,0.4457,0.4456,0.4395,0,0.4789,0.4728,0.4722,0.4668,0.4638,0.464,0.461,0.4588,0.4577,0.4549,0.4536,0.4504,0.4519,0.4507,0.4482,0.4467,0.4434,0.4472,0.4427,0.4426,0.4431,0.4366,0.4357,0.4301,0.4388,0.4386,0.4385,0,0.4721,0.4695,0.4638,0.4611,0.4598,0.4571,0.4539,0.4514,0.4488,0.4481,0.4459,0.4458,0.442,0.4442,0.4389,0.4414,0.4396,0.4386,0.4383,0.4377,0.4401,0.4355,0.4283,0.4274,0.4373,0.4374,0.4375,0,0.4683,0.4634,0.4592,0.4579,0.4547,0.4528,0.4513,0.4489,0.447,0.4442,0.4428,0.4397,0.4378,0.4353,0.4342,0.436,0.4288,0.431,0.4279,0.4279,0.4262,0.4263,0.4184,0.4255,0.4255,0.4255,0.4256,0,0.4625,0.4589,0.4574,0.4548,0.4507,0.45,0.4459,0.4445,0.4423,0.4393,0.4395,0.4366,0.4355,0.4325,0.4316,0.4271,0.4264,0.4256,0.4253,0.4254,0.4254,0.424,0.4242,0.4253,0.4254,0.4254,0.4254,0,0.4575,0.4563,0.4518,0.4492,0.4484,0.4454,0.4431,0.4405,0.4394,0.4356,0.4347,0.4329,0.4293,0.428,0.4236,0.4231,0.4177,0.418,0.4186,0.4185,0.4153,0.4155,0.406,0.4046,0.4129,0.4128,0.4128,0,0.4537,0.4509,0.448,0.446,0.4445,0.4414,0.4393,0.4385,0.4363,0.4331,0.4308,0.4272,0.4243,0.4185,0.4167,0.4132,0.4132,0.4101,0.4127,0.4128,0.4128,0.4129,0.4124,0.4095,0.4095,0.4094,0.4093,0,0.4471,0.4467,0.4438,0.4406,0.4381,0.4356,0.4331,0.4314,0.4302,0.4277,0.424,0.4217,0.4172,0.4135,0.41,0.4084,0.4085,0.4086,0.4076,0.4075,0.4078,0.4073,0.417,0.4087,0.4088,0.4088,0.4089,0.4089,0.4424,0.4398,0.4373,0.434,0.432,0.4296,0.427,0.4255,0.4225,0.4187,0.4184,0.4143,0.4117,0.4069,0.4051,0.4018,0.4027,0.4014,0.401,0.4006,0.4002,0.4086,0.4012,0.4012,0.4013,0.4013,0.4013,0,0.4356,0.4339,0.4309,0.4274,0.4247,0.4252,0.4224,0.4201,0.4165,0.4141,0.4112,0.4068,0.4032,0.4011,0.3974,0.3952,0.3951,0.3942,0.3942,0.3938,0.3998,0.4009,0.3943,0.3943,0.3943,0.3943,0.3943,0.3943,0.4317,0.4272,0.4264,0.4209,0.4193,0.4154,0.4137,0.4114,0.4094,0.4045,0.4015,0.4002,0.3978,0.394,0.3906,0.3901,0.3886,0.3875,0.387,0.3927,0.3934,0.3941,0.395,0.3873,0.3873,0.3812,0.3812,0.3811]}]]